User: anonymous   Login
Location: ?????
(31.7405°N, 35.1927°E)
Time: 06:45:52
(UTC+00:00)
Language:

Cosmos 1943 - Orbit

View from above orbital plane
View from above orbital plane
View from above satellite
View from above satellite

Ground track
Ground track

The orbit data is extracted from the following two-line orbital elements,

1 19119U 88039A   20151.91692490 +.00000195 +00000-0 +12494-3 0  9996
2 19119 071.0030 356.2989 0012909 223.3185 231.7118 14.15150111654436
Epoch (UTC): 30 May 2020 22:00:22
Eccentricity: 0.0012909
inclination: 71.0030°
perigee height: 832 km
apogee height: 851 km
right ascension of ascending node: 356.2989°
argument of perigee: 223.3185°
revolutions per day: 14.15150111
mean anomaly at epoch: 231.7118°
orbit number at epoch: 65443

The dashed part of the orbit path shows where the satellite is in the earth's shadow,  

DLR